Location: Be Sali
(6.5823°N, 10.8910°W)
Time: 06:17:19
(UTC+00:00)

Daily predictions for brighter satellites

Satellite Brightness Start Highest point End
(mag) Time Altitude Azimuth Time Altitude Azimuth Time Altitude Azimuth
Cosmos 2366 rocket 4.0 19:06:03 10° S 19:12:17 67° E 19:18:25 10° NNE
Cosmos 1190 Rocket 4.1 19:10:15 10° S 19:15:20 54° ESE 19:20:28 10° NNE
Cosmos 1862 4.2 19:12:44 10° SSE 19:16:11 27° E 19:19:38 10° NE
Okean-O 2.9 19:12:28 10° SSE 19:16:43 46° ENE 19:20:56 10° N
SL-24 R/B 3.9 19:13:14 10° NNE 19:17:04 62° E 19:21:24 10° S
Cosmos 1140 Rocket 3.6 19:12:06 10° S 19:17:11 54° ESE 19:22:16 10° NNE
deb Kosmos-1763 4.5 19:14:03 10° S 19:17:23 37° ESE 19:20:44 10° NNE
Helios 1A Rocket 2.9 19:13:35 10° SSE 19:17:37 88° WSW 19:21:38 10° NNW
SL-8 Rocket 4.3 19:13:54 10° S 19:20:03 76° W 19:26:13 10° N
MOS 1 Rocket 4.0 19:15:35 10° NE 19:20:12 34° E 19:24:34 10° SSE
Iridium 2 4.0 19:16:50 10° NNE 19:20:23 42° E 19:23:57 10° SSE
BLOCK DM-SL R/B 3.0 19:18:03 10° WSW 19:21:30 48° SSE 19:37:29 10° E
Cosmos 2084 Rocket 3.6 19:19:06 10° S 19:23:01 44° ESE 19:26:57 10° NE
Cosmos 1441 Rocket 3.8 19:19:55 10° SSE 19:23:25 33° E 19:26:50 10° NNE
GPS 2-15 Rocket1 4.4 19:19:43 10° W 19:24:04 37° NNW 19:28:22 10° NE
CZ-2D R/B 3.4 19:21:36 10° SSE 19:25:17 51° ENE 19:28:58 10° N
Cosmos 1151 Rocket 3.0 19:23:55 10° N 19:28:11 70° E 19:32:30 10° S
CSL-04 Rocket 4.2 19:33:14 10° SE 19:38:02 35° ENE 19:42:45 10° NNE
Cosmos 292 Rocket 4.2 19:34:46 10° NNW 19:39:29 66° WSW 19:44:13 10° S
Gbstr 26 Del rocket 2.6 19:36:03 10° NNW 19:39:43 69° NE 19:43:09 13° SE
DELTA-4 R/B 4.3 19:36:54 10° WNW 19:40:43 48° NNE 19:54:28 11° E
ARGOS 4.5 19:40:44 14° ESE 19:43:13 19° ENE 19:46:55 10° NNE
NOSS 3-2 (A) 4.4 19:38:41 10° SW 19:43:46 43° WNW 19:48:59 10° N
YAOGAN 1 2.5 19:44:22 10° SSE 19:48:41 80° E 19:52:59 10° N
Cosmos 1515 Rocket 3.5 19:47:47 10° N 19:52:12 69° E 19:56:36 10° S
NOSS 3-2 (C) 3.4 19:49:04 10° SSW 19:54:26 72° WNW 19:59:56 10° NNE
Cosmos 405 4.2 19:51:32 10° NNW 19:54:49 43° W 19:58:09 10° SSW
ARIANE 5 DEB (SYLDA) 4.1 19:50:14 10° WSW 19:55:25 53° S 20:05:46 20° E
Sich 1 3.0 19:52:09 10° S 19:56:29 61° E 20:00:51 10° NNE
Cosmos 2082 Rocket 3.6 19:53:23 10° SW 19:58:43 41° WNW 20:04:03 10° N
Cosmos 1782 2.7 19:57:07 10° N 20:01:07 73° E 20:05:08 10° S
GPS 2-18 Rocket1 3.7 19:57:25 10° W 20:01:21 57° NNW 20:03:54 20° NE
CZ-4 R/B 2.7 20:01:06 10° S 20:04:44 39° W 20:08:24 10° NNW
HJ-1C 3.3 20:03:48 31° SSE 20:05:14 63° E 20:08:32 10° N
CZ-2C R/B 2.6 20:01:00 10° NNE 20:06:13 63° ESE 20:11:34 10° S
H-2A R/B 2.1 20:05:10 17° SSE 20:09:05 54° ENE 20:14:03 10° N
USA 267 3.2 20:03:40 10° NE 20:10:12 88° WNW 20:16:46 10° SW
GPS 2-17 Rocket1 4.2 20:06:12 10° NW 20:10:19 32° NNE 20:11:56 25° NE
Delta 2 Rocket 4.4 20:06:26 10° SW 20:13:08 58° SSE 20:17:36 27° E
OAO 1 4.5 20:13:09 10° NW 20:18:35 70° NE 20:20:19 43° ESE
ATLAS 3B R/B 2.8 20:12:27 10° S 20:18:51 45° ESE 20:25:05 10° NE
CZ-2C R/B 2.9 20:16:16 11° S 20:21:10 82° WSW 20:25:57 10° NNW
ATLAS 5 CENTAUR R/B 0.9 20:19:11 10° WSW 20:21:54 81° SSE 20:23:44 39° ENE
Cosmos 1934 Rocket 4.0 20:18:26 10° S 20:24:38 58° E 20:30:51 10° NNE
OAO 3 Rocket 3.1 20:21:22 10° SW 20:25:59 58° SE 20:26:02 58° SE
Cosmos 389 Rocket 4.5 20:22:40 10° N 20:23:45 18° NNE 20:23:45 18° NNE
Cosmos 2228 Rocket 2.9 20:21:55 10° N 20:26:18 89° E 20:27:48 41° S
IRIDIUM 104 4.4 20:22:19 10° S 20:27:32 79° W 20:32:44 10° N
ARIANE 5 R/B 3.0 20:07:15 10° W 20:28:16 59° S 20:29:28 46° SE
ATLAS 5 CENTAUR R/B 2.8 20:24:50 10° N 20:31:28 56° ENE 20:33:16 45° ESE
Cosmos 1666 Rocket 4.0 20:32:31 10° SSW 20:36:45 58° W 20:40:59 10° N
Cosmos 1656 3.5 20:34:49 10° N 20:40:22 73° ENE 20:40:46 70° ESE
CZ-3B R/B 4.3 20:39:01 10° NW 20:42:55 51° NNE 20:44:03 46° ENE
Meteor 1-20 Rocket 4.4 20:45:24 58° NE 20:45:24 58° NE 20:50:15 10° NNE
Ariane Rocket 3.4 20:48:28 50° NNE 20:48:28 50° NNE 20:52:17 10° N
CZ-2C R/B 4.3 20:42:58 10° N 20:46:14 48° N 20:46:14 48° N
Ariane H10+ 4.4 20:45:43 10° WSW 20:46:52 17° WSW 20:46:52 17° WSW
deb Centaur AC-2 4.5 20:45:32 10° WSW 20:49:36 66° WNW 20:49:36 66° WNW
Cosmos 1741 Rocket 4.2 20:45:20 10° SSW 20:51:31 60° N 20:55:46 10° N
Cosmos 1697 Rocket 3.9 20:54:06 10° N 20:57:00 30° NNE 20:57:00 30° NNE
